Airfield :
LOGIN :

Register | Disclaimer

   EN    FR    IT 

 










Legend :    VFR   Marginal VFR   IFR   Intensive IFR   Very Intensive IFR
Visi :
Ceiling :
>= 8 km
>= 3000ft
5 to 8 km
1000 to 3000 ft
1500m to 5 km
500 to 1000 ft
800 to 1500m
200 to 500 ft
< 800m
< 200 ft
Symbols :   Thunderstorms  Fog  Heavy snow  Heavy precipitations  Wind > 20 kt
SIGMETs :     Misc.  Thunderstorms  Icing  Turbulence  Mountain Waves  Volcanic Ashes







- Airport Elevation : 468 ft
- IATA code : GRO


LEGE - Girona Costa Brava

CURRENT METAR :
  • 250130Z 00000KT 9999 SCT078 17/13 Q1016

EXPIRED METARs :
  • 250100Z 00000KT 9999 SCT078 17/14 Q1016
  • 250030Z 00000KT 9999 SCT078 17/14 Q1016
  • 250000Z VRB01KT 9999 SCT080 18/14 Q1017
  • 242330Z 29003KT 9999 FEW080 17/14 Q1017
  • 242300Z 00000KT 9999 FEW080 18/14 Q1017

TAF TAF LEGE
Valid from the 25 at 00:00 until the 26 at 00:00 UTC


242300Z 2500/2524 VRB03KT CAVOK TX31/2513Z TN16/2506Z
TEMPO 2508/2511 04008KT
BECMG 2511/2513 18010KT
BECMG 2518/2520 VRB03KT
No reported NOTAMs for that airfield.



MET'MAP, your aeronautical weather chart ! - Copyright ORBIFLY December 2007 - Disclaimer

ORBIFLY MET'MAP TEAM :

Programming & Development : Alexandra Zaïnal
Concept & Development : Baudouin d'Aumeries
Co-Development & Prog : Marc-Olivier Méhu
Technical & hardware support : Manuel Goepfert

Contact : metmap@orbifly.com




SOURCES & CREDITS :

   NOAA